SCP
-0 -0 -0 -0 -0 -0 -0 -0 -0 -0 -0 -0 0 0 0 -0 0 0 0 0 0 0 0 0 0 0 0
-0 -0 -0 0 -0 -0 -0 -0 -0 -0 -0 0 0 0 -0 0 0 0 0 0 0 0 0 0 0 -0 0
-0 -0 -0 -0 -0 -0 0 0 -0 0 0 0 0 0 0 0 0 0 0 0 0 0 0 0 -0 0 0
-0 0 -0 -0 -0 -0 -0 0 -0 0 0 0 0 0 0 0 0 0 0 0 0 0 0 0 0 0 0
-0 -0 -0 -0 -0 -0 0 0 0 0 0 0 0 0 0 0 0 0 0 0 0 0 0 0 0 0 0
-0 -0 -0 -0 -0 0 -0 0 0 0 0 0 0 0 0 0 0 0 0 0 0 0 0 0 0 0 0
-0 -0 -0 -0 -0 -0 0 0 0 0 0 0 0 0 0 0 0 0 0 0 0 0 0 0 0 0 0
-0 -0 -0 0 -0 0 0 0 0 0 0 0 0 0 0 0 0 0 0 0 0 0 0 0 0 0 0
-0 -0 -0 -0 0 0 0 0 0 0 0 0 0 0 0 0 0 0 0 0 0 0 0 0 0 0 0
-0 -0 0 0 0 0 0 0 0 0 0 0 0 0 0 0 0 0 0 0 0 0 0 0 0 0 0
0 0 0 0 0 0 0 0 0 0 0 0 0 0 0 0 0 0 0 0 0 0 0 0 0 0 0
0 0 0 0 0 0 0 0 0 0 0 0 0 0 0 0 0 0 0 0 0 0 0 0 0 0 0
0 0 0 0 0 0 0 0 0 0 0 0 0 0 0 0 0 0 0 0 0 0 0 0 0 0 0
0 0 0 0 0 0 0 0 0 0 0 0 0 0 0 0 0 0 0 0 0 0 0 0 0 0 0
0 0 0 0 0 0 0 0 0 0 0 0 0 0 0 0 0 0 0 0 0 0 0 0 0 0 0
0 0 0 0 0 0 0 0 0 0 0 0 0 0 0 0 0 0 0 0 0 0 0 0 0 0 0
Wind_Speed_500mb
21 21 21 17 16 14 15 17 17 16 16 17 17 23 22 13 17 18 16 9 12 14 14 15 15 14 11
20 19 18 16 14 13 13 14 14 13 13 14 13 15 18 15 11 11 11 8 9 9 9 11 14 20 9
18 18 17 15 13 10 9 10 9 10 10 10 11 9 9 8 8 6 4 4 5 5 6 8 12 5 5
20 20 18 16 13 9 7 6 6 5 5 4 5 5 6 6 9 8 6 4 4 7 7 6 10 4 3
20 21 17 16 14 13 10 7 6 4 3 2 2 3 4 4 6 4 4 3 3 3 6 4 5 6 4
27 23 19 19 18 16 15 13 10 8 7 5 5 3 1 1 2 1 2 1 1 4 6 7 8 5 6
40 33 27 23 24 21 20 18 16 14 12 12 11 9 8 7 5 4 3 3 4 6 8 9 9 10 9
43 40 37 29 24 26 25 23 21 21 19 18 17 16 15 14 12 8 7 9 10 12 14 16 18 18 17
46 44 40 36 34 30 29 29 28 27 26 24 23 23 21 17 18 21 21 20 23 26 28 32 32 33 35
47 44 41 37 35 35 34 32 32 31 31 30 29 28 28 24 25 28 26 27 32 36 39 41 45 46 46
43 41 40 38 36 33 30 30 30 30 33 35 32 31 34 30 29 30 32 33 39 42 48 50 51 54 56
46 46 45 45 42 40 36 32 29 30 32 35 35 32 30 33 34 35 39 43 47 52 58 59 59 61 65
49 52 53 53 50 47 44 40 38 38 37 37 38 35 41 40 39 45 46 51 55 58 65 69 71 72 73
46 50 53 52 52 50 49 47 47 47 44 40 44 44 45 50 50 53 56 59 61 61 67 67 75 72 71
44 43 44 50 52 51 49 47 45 46 43 46 42 50 47 52 57 60 60 66 68 68 75 72 46 43 55
42 41 49 47 45 43 41 39 36 32 31 32 34 39 44 48 53 52 54 62 62 76 73 67 73 73 68
Wind_Direction_500mb
141 140 143 136 121 109 101 93 90 88 86 82 82 96 106 100 94 99 102 79 79 93 83 68 54 75 65
151 151 149 143 129 116 100 92 90 88 88 87 86 95 135 139 147 118 120 121 85 75 60 38 37 47 47
171 169 161 158 152 141 120 101 96 91 85 81 81 76 98 142 137 140 111 90 76 53 30 18 45 28 37
183 182 182 179 174 170 162 135 107 97 97 107 115 113 109 130 127 139 133 120 82 357 349 12 33 310 32
189 194 192 192 194 198 200 195 201 207 187 214 155 168 116 71 79 117 137 143 201 193 280 301 311 27 285
204 199 209 209 213 217 223 224 229 235 240 244 257 247 230 50 201 192 211 236 319 351 1 353 346 351 343
220 217 211 218 227 231 235 235 238 242 245 245 245 245 245 243 251 245 257 269 317 327 336 338 336 337 327
227 227 227 222 235 231 240 246 246 249 252 253 254 253 253 250 246 242 265 266 278 286 288 291 295 290 283
228 232 232 234 233 238 245 250 253 252 256 258 258 259 258 255 258 254 266 269 274 287 291 291 291 290 291
231 233 237 241 243 248 249 253 255 256 258 261 261 267 267 263 264 271 274 282 281 286 288 288 289 289 289
232 235 239 240 244 248 249 251 259 260 257 259 262 260 256 261 269 272 279 282 285 287 286 287 288 290 294
233 237 241 244 246 249 252 257 259 265 263 260 262 265 263 260 268 273 273 278 280 282 283 284 287 287 288
232 235 240 246 250 254 258 262 264 265 263 264 266 268 269 270 275 276 276 278 281 284 285 285 288 289 290
236 240 243 250 256 260 266 267 266 267 269 267 265 272 271 273 274 275 279 280 281 284 282 284 285 290 291
222 245 243 245 254 257 259 263 268 269 269 269 269 272 267 274 276 277 278 282 277 287 290 275 282 283 294
221 221 242 248 253 261 267 271 274 273 272 274 272 269 269 273 276 275 280 279 281 286 292 291 289 291 282
Wind_Speed_850mb
21 21 21 17 16 14 15 17 17 16 16 17 17 23 22 13 17 18 16 9 12 14 14 15 15 14 11
20 19 18 16 14 13 13 14 14 13 13 14 13 15 18 15 11 11 11 8 9 9 9 11 14 20 9
18 18 17 15 13 10 9 10 9 10 10 10 11 9 9 8 8 6 4 4 5 5 6 8 12 5 5
20 20 18 16 13 9 7 6 6 5 5 4 5 5 6 6 9 8 6 4 4 7 7 6 10 4 3
20 21 17 16 14 13 10 7 6 4 3 2 2 3 4 4 6 4 4 3 3 3 6 4 5 6 4
27 23 19 19 18 16 15 13 10 8 7 5 5 3 1 1 2 1 2 1 1 4 6 7 8 5 6
40 33 27 23 24 21 20 18 16 14 12 12 11 9 8 7 5 4 3 3 4 6 8 9 9 10 9
43 40 37 29 24 26 25 23 21 21 19 18 17 16 15 14 12 8 7 9 10 12 14 16 18 18 17
46 44 40 36 34 30 29 29 28 27 26 24 23 23 21 17 18 21 21 20 23 26 28 32 32 33 35
47 44 41 37 35 35 34 32 32 31 31 30 29 28 28 24 25 28 26 27 32 36 39 41 45 46 46
43 41 40 38 36 33 30 30 30 30 33 35 32 31 34 30 29 30 32 33 39 42 48 50 51 54 56
46 46 45 45 42 40 36 32 29 30 32 35 35 32 30 33 34 35 39 43 47 52 58 59 59 61 65
49 52 53 53 50 47 44 40 38 38 37 37 38 35 41 40 39 45 46 51 55 58 65 69 71 72 73
46 50 53 52 52 50 49 47 47 47 44 40 44 44 45 50 50 53 56 59 61 61 67 67 75 72 71
44 43 44 50 52 51 49 47 45 46 43 46 42 50 47 52 57 60 60 66 68 68 75 72 46 43 55
42 41 49 47 45 43 41 39 36 32 31 32 34 39 44 48 53 52 54 62 62 76 73 67 73 73 68
Wind_Direction_850mb
141 140 143 136 121 109 101 93 90 88 86 82 82 96 106 100 94 99 102 79 79 93 83 68 54 75 65
151 151 149 143 129 116 100 92 90 88 88 87 86 95 135 139 147 118 120 121 85 75 60 38 37 47 47
171 169 161 158 152 141 120 101 96 91 85 81 81 76 98 142 137 140 111 90 76 53 30 18 45 28 37
183 182 182 179 174 170 162 135 107 97 97 107 115 113 109 130 127 139 133 120 82 357 349 12 33 310 32
189 194 192 192 194 198 200 195 201 207 187 214 155 168 116 71 79 117 137 143 201 193 280 301 311 27 285
204 199 209 209 213 217 223 224 229 235 240 244 257 247 230 50 201 192 211 236 319 351 1 353 346 351 343
220 217 211 218 227 231 235 235 238 242 245 245 245 245 245 243 251 245 257 269 317 327 336 338 336 337 327
227 227 227 222 235 231 240 246 246 249 252 253 254 253 253 250 246 242 265 266 278 286 288 291 295 290 283
228 232 232 234 233 238 245 250 253 252 256 258 258 259 258 255 258 254 266 269 274 287 291 291 291 290 291
231 233 237 241 243 248 249 253 255 256 258 261 261 267 267 263 264 271 274 282 281 286 288 288 289 289 289
232 235 239 240 244 248 249 251 259 260 257 259 262 260 256 261 269 272 279 282 285 287 286 287 288 290 294
233 237 241 244 246 249 252 257 259 265 263 260 262 265 263 260 268 273 273 278 280 282 283 284 287 287 288
232 235 240 246 250 254 258 262 264 265 263 264 266 268 269 270 275 276 276 278 281 284 285 285 288 289 290
236 240 243 250 256 260 266 267 266 267 269 267 265 272 271 273 274 275 279 280 281 284 282 284 285 290 291
222 245 243 245 254 257 259 263 268 269 269 269 269 272 267 274 276 277 278 282 277 287 290 275 282 283 294
221 221 242 248 253 261 267 271 274 273 272 274 272 269 269 273 276 275 280 279 281 286 292 291 289 291 282